Seattle Boeing, WA

10:50 AM PDT on April 07, 2020 (GMT -0700)
Boeing Field-King County International

Weather History for KBFI - October, 2019

Change the Weather History Date:

Monday, October 14, 2019

  Actual Average Record
Temperature  
Mean Temperature 53 °F -  
Max Temperature 61 °F 59 °F 80 °F (1961)
Min Temperature 45 °F 45 °F 36 °F (1949)
Degree Days  
Heating Degree Days 12    
Growing Degree Days 3 (Base 50)    
Moisture  
Dew Point 44 °F    
Average Humidity 76    
Maximum Humidity 93    
Minimum Humidity 48    
Precipitation  
Precipitation 0.00 in - - ()
Sea Level Pressure  
Sea Level Pressure 30.08 in    
Wind  
Wind Speed 3 mph (South)    
Max Wind Speed 7 mph    
Max Gust Speed -    
Visibility 10 miles    
Events      
Averages and records for this station are not official NWS values.
T = Trace of Precipitation, MM = Missing Value Source: NWS Daily Summary

Daily Weather History Graph

Daily Weather History Graph

Search for Another Location

Airport or City:

Astronomy

Oct. 14, 2019 Rise Set
Actual Time 7:26 AM PDT 6:23 PM PDT
Civil Twilight 6:55 AM PDT 6:54 PM PDT
Nautical Twilight 6:19 AM PDT 7:29 PM PDT
Astronomical Twilight 5:44 AM PDT 8:05 PM PDT
Moon 7:14 PM PDT (10/14) 8:02 AM PDT (10/14)
Length of Visible Light 11h 58m
Length of Day
10h 56m
Full, 99% of the Moon is Illuminated
Oct 14
Full
Oct 21
Last Quarter
Oct 27
New
Nov 4
First Quarter
Nov 12
Full

Hourly Weather History & Observations

Time (PDT) Temp. Windchill Dew Point Humidity Pressure Visibility Wind Dir Wind Speed Gust Speed Precip Events Conditions
12:53 AM 48.0 °F - 45.0 °F 89% 30.06 in 10.0 mi SSE 5.8 mph - N/A   Mostly Cloudy
1:53 AM 46.9 °F - 44.1 °F 90% 30.06 in 10.0 mi SSE 6.9 mph - N/A   Mostly Cloudy
2:53 AM 48.0 °F - 44.1 °F 86% 30.07 in 10.0 mi ESE 4.6 mph - N/A   Overcast
3:53 AM 46.9 °F - 43.0 °F 86% 30.08 in 10.0 mi Calm Calm - N/A   Mostly Cloudy
4:53 AM 46.0 °F - 43.0 °F 89% 30.09 in 9.0 mi Calm Calm - N/A   Partly Cloudy
5:00 AM 45.0 °F - 42.1 °F 90% 30.08 in 10.0 mi Calm Calm - N/A   Scattered Clouds
5:11 AM 46.0 °F - 43.0 °F 89% 30.09 in 8.0 mi Calm Calm - N/A   Mostly Cloudy
5:18 AM 46.0 °F - 43.0 °F 89% 30.09 in 9.0 mi Calm Calm - N/A   Mostly Cloudy
5:44 AM 46.9 °F - 43.0 °F 86% 30.09 in 10.0 mi SE 3.5 mph - N/A   Mostly Cloudy
5:53 AM 46.0 °F 43.9 °F 43.0 °F 89% 30.09 in 10.0 mi SSE 4.6 mph - N/A   Mostly Cloudy
6:53 AM 46.0 °F 43.9 °F 44.1 °F 93% 30.12 in 10.0 mi SSE 4.6 mph - N/A   Overcast
7:53 AM 46.0 °F 43.9 °F 43.0 °F 89% 30.12 in 10.0 mi SSE 4.6 mph - N/A   Scattered Clouds
8:53 AM 48.9 °F - 44.1 °F 83% 30.12 in 10.0 mi SSE 4.6 mph - N/A   Partly Cloudy
9:53 AM 51.1 °F - 44.1 °F 77% 30.13 in 10.0 mi SSE 4.6 mph - N/A   Clear
10:53 AM 54.0 °F - 44.1 °F 69% 30.12 in 10.0 mi Calm Calm - N/A   Partly Cloudy
11:53 AM 55.0 °F - 44.1 °F 67% 30.12 in 10.0 mi Calm Calm - N/A   Partly Cloudy
12:53 PM 57.9 °F - 44.1 °F 60% 30.10 in 10.0 mi West 5.8 mph - N/A   Partly Cloudy
1:53 PM 59.0 °F - 45.0 °F 60% 30.09 in 10.0 mi WNW 4.6 mph - N/A   Partly Cloudy
2:53 PM 60.1 °F - 44.1 °F 55% 30.08 in 10.0 mi Variable 3.5 mph - N/A   Partly Cloudy
3:53 PM 60.1 °F - 41.0 °F 49% 30.08 in 10.0 mi Calm Calm - N/A   Mostly Cloudy
4:53 PM 61.0 °F - 41.0 °F 48% 30.08 in 10.0 mi WNW 4.6 mph - N/A   Clear
5:53 PM 59.0 °F - 41.0 °F 51% 30.05 in 10.0 mi Calm Calm - N/A   Mostly Cloudy
6:53 PM 57.0 °F - 43.0 °F 59% 30.05 in 10.0 mi NNW 4.6 mph - N/A   Mostly Cloudy
7:53 PM 54.0 °F - 45.0 °F 72% 30.06 in 10.0 mi Calm Calm - N/A   Overcast
8:53 PM 53.1 °F - 46.0 °F 77% 30.07 in 10.0 mi Calm Calm - N/A   Mostly Cloudy
9:53 PM 53.1 °F - 45.0 °F 74% 30.06 in 10.0 mi WNW 3.5 mph - N/A   Clear
10:53 PM 52.0 °F - 46.0 °F 80% 30.04 in 10.0 mi Calm Calm - N/A   Clear
11:53 PM 51.1 °F - 46.0 °F 83% 30.03 in 10.0 mi Calm Calm - N/A   Clear